This demonstration page uses our WeatherBlox Daily Observations layout. Learn more.

Left ArrowRight Arrow

39.51506, -84.39828

Hourly Observations for February 4, 2017

Temp ( °F °C ) Dew Point ( °F °C ) Humidity (%) Winds ( mph kmh ) Pressure ( in mb ) Visibility ( mi km ) Precip ( " mm )
12:53 am 00:53 Clear 18 -7.8 8 -13.3 65 65 Calm 30.50 1033 10 16 0.00 0.00
1:53 am 01:53 Clear 18 -7.8 8 -13.3 65 65 Calm 30.49 1033 10 16 0.00 0.00
2:53 am 02:53 Clear 18 -7.8 9 -12.8 68 68 Calm 30.50 1033 10 16 0.00 0.00
3:53 am 03:53 Clear 14 -10 8 -13.3 77 77 S 3 6 30.50 1033 10 16 0.00 0.00
4:53 am 04:53 Clear 15 -9.4 8 -13.3 74 74 S 5 7 30.51 1033 10 16 0.00 0.00
5:53 am 05:53 Clear 14 -10 8 -13.3 77 77 S 3 6 30.51 1033 10 16 0.00 0.00
6:53 am 06:53 Clear 14 -10 8 -13.3 77 77 SSW 3 6 30.52 1034 10 16 0.00 0.00
7:53 am 07:53 Sunny 12 -11.1 7 -13.9 80 80 S 5 7 30.53 1034 10 16 0.00 0.00
8:53 am 08:53 Sunny 18 -7.8 11 -11.7 74 74 S 6 9 30.52 1034 10 16 0.00 0.00
9:53 am 09:53 Sunny 22 -5.6 13 -10.6 68 68 SSW 6 9 30.52 1034 10 16 0.00 0.00
10:53 am 10:53 Sunny 26 -3.3 10 -12.2 51 51 SSW 9 15 30.52 1034 10 16 0.00 0.00
11:53 am 11:53 Sunny 27 -2.8 8 -13.3 45 45 S 7 11 30.48 1032 10 16 0.00 0.00
12:53 pm 12:53 Sunny 29 -1.7 6 -14.4 38 38 S 6 9 30.42 1030 10 16 0.00 0.00
1:53 pm 13:53 Sunny 33 0.6 6 -14.4 32 32 S 13 20 30.38 1029 10 16 0.00 0.00
2:53 pm 14:53 Sunny 34 1.1 7 -13.9 32 32 S 10 17 30.32 1027 10 16 0.00 0.00
3:53 pm 15:53 Sunny 33 0.6 6 -14.4 32 32 S 10 17 30.30 1026 10 16 0.00 0.00
4:53 pm 16:53 Mostly Sunny 32 0 8 -13.3 36 36 SSE 13 20 30.23 1024 10 16 0.00 0.00
5:53 pm 17:53 Sunny 32 0 9 -12.8 38 38 S 9 15 30.22 1023 10 16 0.00 0.00
6:53 pm 18:53 Partly Cloudy 31 -0.6 9 -12.8 40 40 SSE 9 15 30.19 1022 10 16 0.00 0.00
7:53 pm 19:53 Clear 28 -2.2 10 -12.2 47 47 S 8 13 30.18 1022 10 16 0.00 0.00
8:53 pm 20:53 Mostly Clear 26 -3.3 10 -12.2 51 51 SSE 7 11 30.15 1021 10 16 0.00 0.00
9:53 pm 21:53 Cloudy 30 -1.1 10 -12.2 43 43 S 8 13 30.12 1020 10 16 0.00 0.00
10:53 pm 22:53 Cloudy 31 -0.6 10 -12.2 42 42 S 10 17 30.09 1019 10 16 0.00 0.00
11:53 pm 23:53 Cloudy 31 -0.6 11 -11.7 43 43 S 9 15 30.06 1018 10 16 0.00 0.00

Powered by AerisWeather